Meteo pe oră la Abano Terme

Astăzi, 24 Iulie, Sâmbătă

Timp Temperatura Precipitaţii Vânt Presiune Umiditate
00:00 +24°C° 0 mm 1 m/s 759 mmHg 71%
01:00 +24°C° 0 mm 1 m/s 759 mmHg 72%
02:00 +24°C° 0 mm 2 m/s 759 mmHg 73%
03:00 +23°C° 0 mm 2 m/s 759 mmHg 75%
04:00 +23°C° 0 mm 2 m/s 758 mmHg 76%
05:00 +24°C° 0 mm 1 m/s 758 mmHg 74%
06:00 +25°C° 0 mm 1 m/s 758 mmHg 72%
07:00 +26°C° 0 mm 1 m/s 758 mmHg 70%
08:00 +27°C° 0 mm 1 m/s 758 mmHg 64%
09:00 +29°C° 0 mm 2 m/s 758 mmHg 58%
10:00 +31°C° 0 mm 2 m/s 758 mmHg 52%
11:00 +32°C° 0 mm 2 m/s 758 mmHg 49%
12:00 +34°C° 0 mm 2 m/s 758 mmHg 46%
13:00 +35°C° 0 mm 2 m/s 757 mmHg 44%
14:00 +35°C° 0 mm 3 m/s 757 mmHg 44%
15:00 +34°C° 0 mm 4 m/s 757 mmHg 45%
16:00 +34°C° 0 mm 5 m/s 756 mmHg 46%
17:00 +33°C° 0 mm 4 m/s 756 mmHg 51%
18:00 +30°C° 0 mm 4 m/s 756 mmHg 56%
19:00 +28°C° 0 mm 3 m/s 756 mmHg 62%
20:00 +27°C° 0 mm 3 m/s 756 mmHg 67%
21:00 +26°C° 0 mm 3 m/s 756 mmHg 73%
22:00 +24°C° 0 mm 2 m/s 757 mmHg 78%
23:00 +24°C° 0 mm 2 m/s 756 mmHg 80%

Mâine, 25 Iulie, Duminică

Timp Temperatura Precipitaţii Vânt Presiune Umiditate
00:00 +23°C° 0 mm 2 m/s 756 mmHg 82%
01:00 +23°C° 0 mm 2 m/s 756 mmHg 83%
02:00 +22°C° 0 mm 3 m/s 756 mmHg 85%
03:00 +21°C° 0 mm 3 m/s 756 mmHg 86%
04:00 +21°C° 0 mm 3 m/s 756 mmHg 88%
05:00 +22°C° 0 mm 3 m/s 756 mmHg 84%
06:00 +24°C° 0 mm 3 m/s 756 mmHg 80%
07:00 +25°C° 0 mm 3 m/s 756 mmHg 76%
08:00 +27°C° 0 mm 3 m/s 756 mmHg 69%
09:00 +29°C° 0 mm 3 m/s 756 mmHg 62%
10:00 +30°C° 0 mm 4 m/s 756 mmHg 55%
11:00 +31°C° 0 mm 3 m/s 756 mmHg 53%
12:00 +33°C° 0 mm 3 m/s 756 mmHg 50%
13:00 +33°C° 0 mm 3 m/s 756 mmHg 47%
14:00 +34°C° 0 mm 3 m/s 755 mmHg 45%
15:00 +34°C° 0 mm 3 m/s 755 mmHg 44%
16:00 +35°C° 0 mm 3 m/s 755 mmHg 42%
17:00 +33°C° 0 mm 3 m/s 755 mmHg 48%
18:00 +31°C° 0 mm 3 m/s 755 mmHg 54%
19:00 +29°C° 0 mm 4 m/s 755 mmHg 60%
20:00 +28°C° 0 mm 3 m/s 755 mmHg 68%
21:00 +26°C° 0 mm 3 m/s 755 mmHg 75%
22:00 +25°C° 0 mm 3 m/s 755 mmHg 83%
23:00 +25°C° 0 mm 3 m/s 755 mmHg 84%

Poimâine, 26 Iulie, Luni

Timp Temperatura Precipitaţii Vânt Presiune Umiditate
00:00 +25°C° 0 mm 3 m/s 755 mmHg 84%
01:00 +24°C° 0 mm 3 m/s 756 mmHg 85%
02:00 +24°C° 0 mm 3 m/s 756 mmHg 84%
03:00 +22°C° 0 mm 3 m/s 756 mmHg 83%
04:00 +22°C° 0 mm 3 m/s 756 mmHg 82%
05:00 +24°C° 0 mm 3 m/s 756 mmHg 79%
06:00 +25°C° 0 mm 3 m/s 756 mmHg 76%
07:00 +25°C° 0 mm 3 m/s 756 mmHg 73%
08:00 +27°C° 0 mm 3 m/s 757 mmHg 68%
09:00 +29°C° 0 mm 3 m/s 757 mmHg 62%
10:00 +31°C° 0 mm 3 m/s 757 mmHg 57%
11:00 +33°C° 0 mm 3 m/s 757 mmHg 53%
12:00 +34°C° 0 mm 3 m/s 757 mmHg 48%
13:00 +35°C° 0 mm 3 m/s 756 mmHg 44%
14:00 +34°C° 0.3 mm 3 m/s 756 mmHg 48%
15:00 +33°C° 0.3 mm 4 m/s 756 mmHg 52%
16:00 +32°C° 0.3 mm 5 m/s 756 mmHg 56%
17:00 +30°C° 0.1 mm 4 m/s 756 mmHg 59%
18:00 +30°C° 0.1 mm 4 m/s 756 mmHg 63%
19:00 +29°C° 0.1 mm 3 m/s 756 mmHg 66%
20:00 +28°C° 0.1 mm 3 m/s 756 mmHg 73%
21:00 +26°C° 0.1 mm 3 m/s 756 mmHg 79%
22:00 +25°C° 0.1 mm 3 m/s 756 mmHg 86%
23:00 +24°C° 0.1 mm 3 m/s 757 mmHg 86%

27 Iulie, Marţi

Timp Temperatura Precipitaţii Vânt Presiune Umiditate
00:00 +24°C° 0.1 mm 3 m/s 757 mmHg 87%
01:00 +22°C° 0.1 mm 3 m/s 757 mmHg 87%
02:00 +23°C° 0 mm 2 m/s 758 mmHg 86%
03:00 +23°C° 0 mm 2 m/s 758 mmHg 86%
04:00 +22°C° 0 mm 1 m/s 758 mmHg 85%
05:00 +23°C° 0 mm 1 m/s 758 mmHg 81%
06:00 +24°C° 0 mm 1 m/s 758 mmHg 77%
07:00 +25°C° 0 mm 1 m/s 758 mmHg 74%
08:00 +26°C° 0.1 mm 1 m/s 759 mmHg 68%
09:00 +28°C° 0.1 mm 1 m/s 759 mmHg 63%
10:00 +30°C° 0.1 mm 1 m/s 759 mmHg 58%
11:00 +31°C° 0.1 mm 1 m/s 758 mmHg 53%
12:00 +32°C° 0.1 mm 2 m/s 758 mmHg 48%
13:00 +35°C° 0.1 mm 2 m/s 758 mmHg 43%
14:00 +33°C° 1 mm 3 m/s 757 mmHg 53%
15:00 +30°C° 1 mm 3 m/s 757 mmHg 64%
16:00 +28°C° 1 mm 4 m/s 756 mmHg 74%
17:00 +27°C° 1.2 mm 4 m/s 757 mmHg 79%
18:00 +25°C° 1.2 mm 4 m/s 757 mmHg 83%
19:00 +23°C° 1.2 mm 4 m/s 758 mmHg 87%
20:00 +23°C° 0.2 mm 4 m/s 758 mmHg 89%
21:00 +22°C° 0.2 mm 4 m/s 759 mmHg 92%
22:00 +21°C° 0.2 mm 3 m/s 759 mmHg 94%
23:00 +21°C° 0 mm 3 m/s 759 mmHg 93%

28 Iulie, Miercuri

Timp Temperatura Precipitaţii Vânt Presiune Umiditate
00:00 +21°C° 0 mm 2 m/s 759 mmHg 92%
01:00 +21°C° 0 mm 2 m/s 759 mmHg 91%
02:00 +20°C° 0 mm 2 m/s 759 mmHg 91%
03:00 +21°C° 0 mm 1 m/s 758 mmHg 90%
04:00 +21°C° 0 mm 1 m/s 758 mmHg 90%
05:00 +22°C° 0 mm 1 m/s 759 mmHg 86%
06:00 +23°C° 0 mm 1 m/s 759 mmHg 82%
07:00 +24°C° 0 mm 1 m/s 759 mmHg 79%
08:00 +26°C° 0 mm 1 m/s 759 mmHg 72%
09:00 +27°C° 0 mm 1 m/s 759 mmHg 66%
10:00 +29°C° 0 mm 1 m/s 759 mmHg 59%
11:00 +31°C° 0 mm 1 m/s 759 mmHg 54%
12:00 +32°C° 0 mm 1 m/s 759 mmHg 48%
13:00 +34°C° 0 mm 1 m/s 759 mmHg 43%
14:00 +35°C° 0 mm 2 m/s 759 mmHg 42%
15:00 +35°C° 0 mm 3 m/s 759 mmHg 41%
16:00 +35°C° 0 mm 3 m/s 758 mmHg 39%
17:00 +33°C° 0 mm 3 m/s 759 mmHg 47%
18:00 +31°C° 0 mm 3 m/s 759 mmHg 55%
19:00 +29°C° 0 mm 3 m/s 759 mmHg 62%
20:00 +28°C° 0 mm 2 m/s 759 mmHg 67%
21:00 +27°C° 0 mm 2 m/s 760 mmHg 71%
22:00 +25°C° 0 mm 1 m/s 760 mmHg 75%
23:00 +25°C° 0 mm 2 m/s 760 mmHg 76%

29 Iulie, Joi

Timp Temperatura Precipitaţii Vânt Presiune Umiditate
00:00 +25°C° 0 mm 2 m/s 760 mmHg 77%
01:00 +25°C° 0 mm 2 m/s 760 mmHg 78%
02:00 +24°C° 0 mm 2 m/s 760 mmHg 78%
03:00 +24°C° 0 mm 2 m/s 760 mmHg 79%
04:00 +23°C° 0 mm 2 m/s 760 mmHg 79%
05:00 +24°C° 0 mm 1 m/s 760 mmHg 74%
06:00 +25°C° 0 mm 1 m/s 760 mmHg 70%
07:00 +26°C° 0 mm 1 m/s 760 mmHg 65%
08:00 +28°C° 0 mm 1 m/s 760 mmHg 59%
09:00 +30°C° 0 mm 1 m/s 760 mmHg 53%
10:00 +32°C° 0 mm 1 m/s 760 mmHg 47%
11:00 +34°C° 0 mm 2 m/s 760 mmHg 44%
12:00 +35°C° 0 mm 2 m/s 759 mmHg 41%
13:00 +36°C° 0 mm 2 m/s 759 mmHg 38%
14:00 +36°C° 0 mm 2 m/s 759 mmHg 37%
15:00 +36°C° 0 mm 3 m/s 758 mmHg 37%
16:00 +36°C° 0 mm 3 m/s 758 mmHg 36%
17:00 +35°C° 0 mm 3 m/s 757 mmHg 42%
18:00 +33°C° 0 mm 3 m/s 757 mmHg 48%
19:00 +31°C° 0 mm 3 m/s 757 mmHg 54%
20:00 +29°C° 0 mm 2 m/s 758 mmHg 58%
21:00 +28°C° 0 mm 2 m/s 758 mmHg 63%
22:00 +26°C° 0 mm 1 m/s 758 mmHg 67%
23:00 +26°C° 0 mm 1 m/s 758 mmHg 68%
Arată mai mult

Formular de consimțământ

Meteoprog și furnizorii noștri de servicii pot stoca și accesa date personale, precum cookies, identificatori de dispozitiv sau alte tehnologii similare pe dispozitivul dumneavoastră și procesa astfel de date pentru a personaliza conținutul și reclamele, dar și pentru a oferi caracteristici de social media și pentru a analiza traficul.

  • Stocarea și/sau accesarea informațiilor pe dispozitivul dumneavoastră

    Cookies, identificatori de dispozitiv sau alte informații pot fi stocate sau accesate pe dispozitiv în scopurile indicate mai sus.

  • Reclame și conținut personalizat, evaluarea reclamelor și a conținutului, informații despre audiențe și dezvoltarea produselor

    Reclamele și conținutul pot fi personalizate pe baza unui profil. Pot fi adăugate date suplimentare pentru a personaliza mai bine reclamele și conținutul. Performanța reclamelor și conținutului poate fi măsurată. Pot fi obținute informații despre utilizatorii care au văzut reclamele și conținutul. Aceste date pot fi utilizate pentru a dezvolta sau îmbunătăți experiența utilizatorilor, sistemele și software-ul.

Dând clic pe ‘Sunt de acord’, permiteți utilizarea cookie-urilor menționate, a identificatorilor de dispozitiv, balizelor web sau altor tehnologii similare. Setările pot fi modificate din browser-ul dispozitivului dumneavoastră.

În anumite scopuri, interesele legitime pot prima asupra consimțământului. Puteți citi mai multe informații în acest sens în Politica privind Confidențialitatea Datelor și Cookie.